#timestamp,LO_Frequency,Hit,StdDev 
1576328415.5,286046998.1,N
1576328435.4,286046998.6,N
1576328455.2,286046998.6,N
1576328475.1,286046998.8,N
1576328476.0,286046998.8,N
1576328495.8,286046997.0,N
1576328515.6,286046998.6,N
1576328535.5,286047000.0,N
1576328555.3,286047000.4,N
1576328575.1,286047002.7,N
1576328595.9,286047002.7,N
1576328615.7,286047002.5,N
1576328635.6,286047000.1,N
1576328655.4,286047000.1,N
1576328675.2,286047002.3,N
1576328695.1,286047002.8,N
1576328696.0,286047002.8,N
1576328715.8,286047000.2,N
1576328735.6,286047000.0,N
1576328755.5,286046999.1,N
1576328775.3,286046999.2,N
1576328795.2,286046998.1,N
1576328815.9,286046998.2,N
1576328835.7,286046996.7,N
1576328855.6,286046999.5,N
1576328875.4,286046995.4,N
1576328895.2,286046995.7,N
1576328915.1,286046993.9,Y
1576328916.0,286046993.9,P
1576328935.8,286046996.1,N
1576328955.7,286046995.4,N
1576328975.5,286046998.0,N
1576328995.3,286046996.7,N
1576329015.2,286046999.4,N
1576329035.0,286046997.1,N
1576329035.9,286046997.1,N
1576329055.7,286046999.5,N
1576329075.6,286046997.1,N
1576329095.4,286046998.3,N
1576329115.3,286046996.7,N
1576329135.1,286046997.9,N
1576329136.0,286046997.9,N
1576329155.8,286046995.0,Y
1576329175.7,286046999.4,P
1576329195.5,286046999.5,N
1576329215.3,286046998.9,N
1576329235.2,286047000.7,N
1576329255.0,286046998.9,N
1576329255.9,286046998.9,N
1576329275.8,286046998.4,N
1576329295.6,286046998.1,N
1576329315.4,286047000.9,N
1576329335.3,286047000.5,N
1576329355.1,286047000.8,N
1576329375.9,286046998.5,N
1576329395.7,286046998.8,N
1576329415.5,286046999.3,N
1576329435.4,286046999.2,N
1576329455.2,286046998.5,N
1576329475.0,286047000.4,N
1576329475.9,286047000.4,N
1576329495.8,286046998.3,N
1576329515.6,286046998.5,N
1576329535.4,286046998.4,N
1576329555.3,286046999.5,N
1576329575.1,286046998.7,N
1576329595.9,286046999.0,N
1576329615.7,286047000.5,N
1576329635.5,286047000.3,N
1576329655.4,286047002.7,N
1576329675.2,286047002.3,N
1576329695.0,286047001.8,N
1576329695.9,286047001.8,N
1576329715.8,286047002.4,N
1576329735.6,286047002.3,N
1576329755.5,286047002.0,N
1576329775.3,286046999.9,N
1576329795.1,286046998.2,N
1576329815.9,286047000.1,N
1576329835.7,286047002.3,N
1576329855.5,286047002.3,N
1576329875.4,286046999.7,N
1576329895.2,286047000.7,N
1576329915.1,286046999.3,N
1576329916.0,286046999.3,N
1576329935.8,286046996.5,N
1576329955.6,286046997.8,N
1576329975.5,286046995.7,N
1576329995.3,286046997.9,N
1576330015.1,286046997.5,N
1576330035.9,286046997.1,N
1576330055.7,286046996.6,N
1576330075.6,286046998.8,N
1576330095.4,286046999.0,N
1576330115.2,286046999.1,N
1576330135.1,286047002.5,N
1576330136.0,286047002.5,N
1576330155.8,286047000.4,N
1576330175.6,286046998.2,N
1576330195.5,286047002.8,N
1576330215.3,286046998.8,N
1576330235.2,286046996.5,N
1576330255.9,286046997.5,N
1576330275.7,286046995.3,N
1576330295.6,286046998.0,N
1576330315.4,286046995.1,N
1576330335.2,286046997.7,N
1576330355.1,286046996.8,N
1576330356.0,286046996.8,N
1576330375.8,286046998.0,N
1576330395.7,286046995.4,N
1576330415.5,286046996.7,N
1576330435.3,286046997.8,N
1576330455.2,286046996.8,N
1576330475.0,286046997.5,N
1576330475.9,286046997.5,N
1576330495.8,286046997.0,N
1576330515.6,286046997.7,N
1576330535.4,286046999.5,N
1576330555.3,286046997.1,N
1576330575.1,286046997.3,N
1576330595.8,286046997.8,N
1576330615.7,286046997.3,N
1576330635.5,286046999.2,N
1576330655.4,286046996.6,N
1576330675.2,286046999.4,N
1576330695.0,286046999.5,N
1576330695.9,286046999.5,N
1576330715.8,286046998.3,N
1576330735.6,286046999.4,N
1576330755.4,286046999.5,N
1576330775.3,286046996.5,N
1576330795.1,286046996.7,N
1576330815.9,286046999.4,N
1576330835.7,286046999.3,N
1576330855.5,286046999.8,N
1576330875.4,286046998.7,N
1576330895.2,286046999.0,N
1576330915.0,286046999.1,N
1576330915.9,286046999.1,N
1576330935.8,286046999.4,N
1576330955.6,286046999.4,N
1576330975.5,286046999.1,N
1576330995.3,286046998.8,N
1576331015.1,286046999.4,N
1576331035.9,286046998.6,N
1576331055.7,286047000.3,N
1576331075.5,286046999.8,N
1576331095.4,286047002.4,N
1576331115.2,286047000.2,N
1576331135.1,286047000.0,N
1576331136.0,286047000.0,N
1576331155.8,286047001.2,N
1576331175.6,286046999.2,N
1576331195.5,286046998.9,N
1576331215.3,286047001.2,N
1576331235.1,286047000.9,N
1576331255.9,286046998.7,N
1576331275.7,286046999.2,N
1576331295.6,286046998.6,N
1576331315.4,286046998.7,N
1576331335.2,286046998.8,N
1576331355.1,286046999.3,N
1576331356.0,286046999.3,N
1576331375.8,286046999.3,N
1576331395.6,286046999.2,N
1576331415.5,286046999.2,N
1576331435.3,286046999.2,N
1576331455.2,286046998.8,N
1576331475.9,286046998.3,N
1576331495.7,286046999.3,N
1576331515.6,286046999.2,N
1576331535.4,286046997.1,Y
1576331555.2,286046998.5,P
1576331575.1,286046996.7,P
1576331576.0,286046996.7,N
1576331595.8,286046996.8,N
1576331615.7,286046996.7,N
1576331635.5,286046997.1,N
1576331655.3,286046999.5,N
1576331675.2,286046999.5,N
1576331695.0,286046999.4,N
1576331725.9,286046997.0,E
1576331735.9,286046999.3,N
1576331755.7,286046999.9,P
1576331775.5,286047002.8,P
1576331795.4,286046999.8,N
1576331815.2,286047000.3,N
1576331835.1,286047000.8,N
1576331836.0,286047000.8,N
1576331855.8,286046998.3,N
1576331875.6,286046999.7,N
1576331895.5,286047000.5,N
1576331915.3,286047000.6,N
1576331935.1,286047000.8,N
1576331955.9,286046996.7,Y
1576331975.7,286046995.0,P
1576331995.6,286046999.1,N
